Weather History for Milton, FL

Change the Weather History Date:

Wednesday, January 16, 2013

  Actual Average (KNSE) Record (KNSE)
Temperature  
Mean Temperature 58 °F -  
Max Temperature 71 °F 59 °F 72 °F (2006)
Min Temperature 46 °F 40 °F 25 °F (2014)
Degree Days  
Heating Degree Days 6    
Growing Degree Days 8 (Base 50)    
Moisture  
Dew Point 57 °F    
Average Humidity 92    
Maximum Humidity 97    
Minimum Humidity 88    
Precipitation  
Precipitation 0.80 in - - ()
Sea Level Pressure  
Sea Level Pressure 29.95 in    
Wind  
Wind Speed 8 mph (WNW)    
Max Wind Speed 13 mph    
Max Gust Speed 20 mph    
Visibility 8 miles    
Events Rain    
Averages and records for this station are not official NWS values.
T = Trace of Precipitation, MM = Missing Value Source: NWS Daily Summary

Daily Weather History Graph

Daily Weather History Graph

Search for Another Location

Airport:

Trip Planner

Search our weather history database for the weather conditions in past years. The results will help you decide how hot, cold, wet, or windy it might be!

Date:

Astronomy

Jan. 16, 2013 Rise Set
Actual Time 6:45 AM CST 5:10 PM CST
Civil Twilight 6:19 AM CST 5:36 PM CST
Nautical Twilight 5:50 AM CST 6:05 PM CST
Astronomical Twilight 5:21 AM CST 6:34 PM CST
Moon 9:47 AM CST (1/16) 10:33 PM CST (1/16)
Length of Visible Light 11h 16m
Length of Day
10h 24m
Waxing Crescent, 28% of the Moon is Illuminated
Jan 16
Waxing Crescent
Jan 18
First Quarter
Jan 26
Full
Feb 3
Last Quarter
Feb 10
New

Hourly Weather History & Observations

Time (CST) Temp. Windchill Dew Point Humidity Pressure Visibility Wind Dir Wind Speed Gust Speed Precip Events Conditions
12:35 AM 68.0 °F - 66.2 °F 94% 29.95 in 10.0 mi SSE 9.2 mph - N/A   Overcast
12:56 AM 68.0 °F - 66.0 °F 93% 29.94 in 10.0 mi South 9.2 mph - N/A   Overcast
1:04 AM 69.8 °F - 66.2 °F 88% 29.94 in 10.0 mi South 11.5 mph - N/A   Overcast
1:13 AM 69.8 °F - 66.2 °F 88% 29.94 in 10.0 mi South 11.5 mph 19.6 mph N/A   Overcast
1:37 AM 69.8 °F - 66.2 °F 88% 29.95 in 5.0 mi SSW 8.1 mph 19.6 mph 0.06 in Rain Light Rain
1:39 AM 69.8 °F - 66.2 °F 88% 29.95 in 6.0 mi SSW 10.4 mph 18.4 mph 0.06 in Rain Light Rain
1:53 AM 69.8 °F - 66.2 °F 88% 29.95 in 10.0 mi South 11.5 mph 17.3 mph 0.06 in   Overcast
1:56 AM 70.0 °F - 66.9 °F 90% 29.90 in 10.0 mi South 10.4 mph 17.3 mph 0.06 in   Overcast
2:03 AM 69.8 °F - 66.2 °F 88% 29.94 in 10.0 mi South 11.5 mph - N/A   Overcast
2:56 AM 69.1 °F - 66.0 °F 90% 29.90 in 10.0 mi South 5.8 mph - N/A   Overcast
3:44 AM 69.8 °F - 66.2 °F 88% 29.94 in 10.0 mi SSW 4.6 mph - N/A   Mostly Cloudy
3:53 AM 69.8 °F - 66.2 °F 88% 29.94 in 10.0 mi SSW 8.1 mph - N/A   Mostly Cloudy
3:54 AM 70.0 °F - 66.9 °F 90% 29.90 in 10.0 mi SSW 8.1 mph - N/A   Scattered Clouds
4:18 AM 69.8 °F - 68.0 °F 94% 29.94 in 10.0 mi Variable 6.9 mph - N/A   Mostly Cloudy
4:22 AM 69.8 °F - 68.0 °F 94% 29.94 in 10.0 mi SSW 8.1 mph - N/A   Mostly Cloudy
4:56 AM 71.1 °F - 68.0 °F 90% 29.90 in 10.0 mi SSW 6.9 mph - N/A   Overcast
5:56 AM 71.1 °F - 69.1 °F 93% 29.91 in 10.0 mi SSW 8.1 mph 17.3 mph N/A   Overcast
6:56 AM 59.0 °F - 57.0 °F 93% 29.94 in 10.0 mi NNW 6.9 mph 17.3 mph 0.00 in   Overcast
7:30 AM 57.2 °F - 55.4 °F 94% 29.99 in 8.0 mi NW 8.1 mph - 0.04 in Rain Rain
7:39 AM 57.2 °F - 55.4 °F 94% 29.99 in 9.0 mi NW 9.2 mph - 0.04 in Rain Light Rain
7:56 AM 57.0 °F - 55.9 °F 96% 29.95 in 4.0 mi NNW 9.2 mph - 0.04 in   Overcast
8:56 AM 55.9 °F - 54.0 °F 93% 29.98 in 3.0 mi NNW 9.2 mph - 0.02 in   Overcast
9:18 AM 55.4 °F - 53.6 °F 94% 30.02 in 2.5 mi NW 8.1 mph - 0.06 in Rain Light Rain
9:25 AM 55.4 °F - 53.6 °F 94% 30.01 in 6.0 mi NNW 4.6 mph - 0.07 in Rain Light Rain
9:56 AM 55.0 °F - 54.0 °F 96% 29.97 in 2.5 mi North 9.2 mph - 0.26 in Rain Heavy Rain
10:00 AM 55.4 °F - 53.6 °F 94% 30.00 in 3.0 mi NNW 8.1 mph - 0.00 in Rain Light Rain
10:18 AM 55.4 °F - 53.6 °F 94% 30.00 in 10.0 mi NW 8.1 mph - 0.01 in   Overcast
10:56 AM 55.9 °F - 53.1 °F 90% 29.95 in 10.0 mi NW 12.7 mph - 0.01 in   Overcast
11:56 AM 55.0 °F - 53.1 °F 93% 29.93 in 10.0 mi NNW 8.1 mph - 0.03 in   Overcast
12:31 PM 53.6 °F - 51.8 °F 94% 29.96 in 6.0 mi North 8.1 mph - 0.07 in Rain Rain
12:53 PM 53.6 °F - 51.8 °F 94% 29.97 in 10.0 mi NNW 5.8 mph - 0.14 in Rain Light Rain
12:56 PM 54.0 °F - 52.0 °F 93% 29.94 in 5.0 mi NW 5.8 mph - 0.16 in Rain Rain
1:14 PM 53.6 °F - 51.8 °F 94% 29.96 in 5.0 mi NW 6.9 mph - 0.07 in Rain Rain
1:25 PM 53.6 °F - 51.8 °F 94% 29.96 in 4.0 mi North 6.9 mph - 0.09 in Rain Rain
1:56 PM 54.0 °F - 52.0 °F 93% 29.93 in 5.0 mi NNW 5.8 mph - 0.13 in Rain Light Rain
2:05 PM 53.6 °F - 51.8 °F 94% 29.95 in 7.0 mi NNW 5.8 mph - 0.01 in Rain Light Rain
2:56 PM 53.1 °F - 51.1 °F 93% 29.94 in 10.0 mi NW 5.8 mph - 0.03 in   Overcast
3:56 PM 52.0 °F - 51.1 °F 97% 29.94 in 10.0 mi Variable 6.9 mph - 0.01 in   Overcast
4:03 PM 51.8 °F - 50.0 °F 94% 29.97 in 10.0 mi NW 10.4 mph 16.1 mph N/A   Overcast
4:56 PM 50.0 °F - 48.0 °F 93% 29.96 in 10.0 mi NNW 9.2 mph - N/A   Overcast
5:56 PM 48.9 °F - 46.9 °F 93% 29.97 in 10.0 mi NW 6.9 mph - 0.04 in   Overcast
6:56 PM 48.9 °F - 46.9 °F 93% 29.98 in 10.0 mi NNW 9.2 mph - N/A   Overcast
7:56 PM 48.9 °F - 46.9 °F 93% 29.96 in 10.0 mi North 5.8 mph - 0.01 in Rain Light Rain
8:56 PM 48.9 °F - 46.9 °F 93% 29.96 in 10.0 mi NE 3.5 mph - 0.00 in   Overcast
9:56 PM 48.9 °F - 46.9 °F 93% 29.97 in 10.0 mi WNW 4.6 mph - N/A   Overcast
10:56 PM 46.9 °F - 45.0 °F 93% 29.98 in 10.0 mi NW 6.9 mph - 0.00 in   Overcast
11:56 PM 46.0 °F 43.9 °F 44.1 °F 93% 29.98 in 7.0 mi WNW 4.6 mph - N/A   Overcast